World > North America > United States > Pennsylvania

Ephrata, Pennsylvania Regional Weather

Lat: 40.18N, Lon: 76.18W
Wx Zone: PAZ066Web Search

If you are on your PC, you can easily pass this page to your phone by scanning the QR Code near the bottom with your camera.

Feedback


°F Click to change Ephrata hourly weather to Imperial units.Click to change Ephrata hourly weather to Metric units. °C
Ephrata Weather Map
UTC Time: 5/18/2021, 14:42
Your Time:

Ephrata, PA Regional Weather

Expires:202105181500;;312722
ASUS41 KPHI 181412
RWRPHI

REGIONAL WEATHER ROUNDUP
NATIONAL WEATHER SERVICE MOUNT HOLLY NJ
1000 AM EDT TUE MAY 18 2021

NOTE:  "FAIR" INDICATES FEW OR NO CLOUDS BELOW 12,000 FEET WITH NO
SIGNIFICANT WEATHER AND/OR OBSTRUCTIONS TO VISIBILITY.

 * = STATION DOES NOT REPORT PRECIPITATION (E.G. RAIN, SNOW, ETC.) 
        OR FOG.


PAZ043-044-047-054-055-060>062-066>071-181500-
EASTERN PENNSYLVANIA
  
CITY           SKY/WX    TMP DP  RH WIND       PRES   REMARKS
PHILADELPHIA   SUNNY     70  50  49 SW8       30.38S                  
NORTH PHILA    SUNNY     72  50  45 NW9       30.39R                  
BLUE BELL*     SUNNY     71  49  45 W7        30.39S                  
DOYLESTOWN     SUNNY     73  48  41 W8        30.36S                  
QUAKERTOWN*    SUNNY     72  48  43 SW9       30.38S                  
PERKASIE*      FAIR      70  48  46 NW5       30.39S                  
POTTSTOWN      SUNNY     69  49  48 W7        30.40R                  
LANCASTER      SUNNY     70  50  49 VRB3      30.39S                  
COATESVILLE    SUNNY     68  50  52 W8        30.41S                  
WEST CHESTER   FAIR      72  46  40 W7        30.39S                  
READING        SUNNY     71  51  49 W5        30.37S                  
ALLENTOWN      SUNNY     70  49  47 W8        30.37S                  
QN CITY/ALNTWN FAIR      70  50  49 SW9       30.39S                  
MOUNT POCONO   SUNNY     67  44  43 W6        30.37S                  
HAZLETON       SUNNY     66  43  42 W3        30.41F                  
LEHIGHTON      FAIR      68  50  52 CALM      30.38S                  
WILKES BARRE   SUNNY     69  48  47 SW9       30.37S                  

$$

SKY/WX - Weather  TMP - Temperature  DP - Dew Point  RH - Relative Humidity
WIND - Wind Direction/Speed PRES - Barometric Pressure VSB - Visibility
WCI - Wind Chill Index E13G22 Wind - East Wind 13 mph/Gusts of 22 mph